Location: Newark
(35.5000°N, 109.0000°E)
Time: 02:32:39
(UTC+00:00)

Envisat - Visible Passes

Search period start: 25 September 2020 00:00
Search period end: 05 October 2020 00:00
Orbit: 764 x 766 km, 98.1° (Epoch: 24 September)

Date Brightness Start Highest point End Pass type
(mag) Time Alt. Az. Time Alt. Az. Time Alt. Az.
25 Sep 6.3 11:25:17 10° WSW 11:27:40 13° W 11:30:04 10° WNW visible
25 Sep 5.6 21:55:52 10° NE 22:00:04 26° E 22:04:15 10° SSE visible
26 Sep 6.7 21:22:16 10° E 21:22:57 10° E 21:23:38 10° E visible
28 Sep 6.1 11:12:53 10° SW 11:16:13 17° W 11:19:33 10° NW visible
28 Sep 6.0 21:44:57 10° NE 21:48:38 20° E 21:52:18 10° SE visible
30 Sep 4.9 22:09:33 10° NNE 22:14:14 36° E 22:18:52 10° SSE visible
01 Oct 5.9 11:00:50 10° SW 11:04:46 23° W 11:08:43 10° NW visible
01 Oct 6.2 21:34:14 10° ENE 21:37:11 15° E 21:40:06 10° SE visible
03 Oct 6.5 11:28:32 10° WSW 11:30:25 12° W 11:32:19 10° WNW visible
03 Oct 5.4 21:58:28 10° NE 22:02:49 28° E 22:07:08 10° SSE visible
04 Oct 5.4 10:48:58 10° SSW 10:53:19 29° W 10:57:43 10° NW visible
04 Oct 6.5 21:24:02 10° ENE 21:25:42 11° E 21:27:23 10° ESE visible
